Location: Austin
(30.3000°N, 97.7500°W)
Time: 02:00:56
(UTC-05:00)

CZ-4 R/B - Pass Details

Date: 15 May 2024
Orbit: 516 x 571 km, 97.6° (Epoch: 29 May)

Event Time Altitude Azimuth Distance (km) Brightness Sun altitude
Exits shadow 21:20:54 - 180° (S) 2,287 4.2 -12.8°
Reaches altitude 10° 21:22:14 10° 184° (S) 1,737 3.6 -13.0°
Maximum altitude 21:25:52 50° 260° (W) 663 2.0 -13.7°
Drops below altitude 10° 21:29:31 10° 337° (NNW) 1,748 4.8 -14.4°
Sets 21:31:40 0° 342° (NNW) 2,642 5.7 -14.8°
